Time,TemperatureF,DewpointF,PressureIn,WindDirection,WindDirectionDegrees,WindSpeedMPH,WindSpeedGustMPH,Humidity,HourlyPrecipIn,Conditions,Clouds,dailyrainin,SolarRadiationWatts/m^2,SoftwareType,DateUTC
2013-04-23 00:00:00,35.5,-99.9,20.00,NNW,330,3.0,3.0,255,0.00,,,0.00,0,Wunderground v.1.15,2013-04-23 07:00:00,
2013-04-23 00:10:00,35.1,-99.9,20.00,NNW,330,0.0,0.0,255,0.00,,,0.00,0,Wunderground v.1.15,2013-04-23 07:10:00,
2013-04-23 00:20:00,35.1,-99.9,20.00,NNW,330,1.0,1.0,255,0.00,,,0.00,0,Wunderground v.1.15,2013-04-23 07:20:00,
2013-04-23 00:30:00,33.6,-99.9,20.00,NNW,330,2.0,2.0,255,0.00,,,0.00,0,Wunderground v.1.15,2013-04-23 07:30:00,
2013-04-23 00:40:00,34.2,-99.9,20.00,NNW,330,0.0,4.0,255,0.00,,,0.00,0,Wunderground v.1.15,2013-04-23 07:40:00,
2013-04-23 00:50:00,35.8,-99.9,20.00,NNW,330,0.0,4.0,255,0.00,,,0.00,0,Wunderground v.1.15,2013-04-23 07:50:00,
2013-04-23 01:00:00,35.1,-99.9,20.00,NNW,330,3.0,3.0,255,0.00,,,0.00,0,Wunderground v.1.15,2013-04-23 08:00:00,
2013-04-23 01:10:00,33.5,-99.9,20.00,NNW,330,3.0,3.0,255,0.00,,,0.00,0,Wunderground v.1.15,2013-04-23 08:10:00,
2013-04-23 01:20:00,33.7,-99.9,20.00,NNW,330,0.0,0.0,255,0.00,,,0.00,0,Wunderground v.1.15,2013-04-23 08:20:00,
2013-04-23 01:25:00,34.1,-99.9,20.00,NNW,330,0.0,0.0,255,0.00,,,0.00,0,Wunderground v.1.15,2013-04-23 08:25:00,
2013-04-23 01:35:00,33.3,-99.9,20.00,NNW,330,2.0,2.0,255,0.00,,,0.00,0,Wunderground v.1.15,2013-04-23 08:35:00,
2013-04-23 01:45:00,34.2,-99.9,20.00,NNW,330,0.0,2.0,255,0.00,,,0.00,0,Wunderground v.1.15,2013-04-23 08:45:00,
2013-04-23 01:55:00,32.7,-99.9,20.00,NNW,330,2.0,2.0,255,0.00,,,0.00,0,Wunderground v.1.15,2013-04-23 08:55:00,
2013-04-23 02:00:00,32.2,-99.9,20.00,NNW,330,1.0,1.0,255,0.00,,,0.00,0,Wunderground v.1.15,2013-04-23 09:00:00,
2013-04-23 02:10:00,32.1,-99.9,20.00,NNW,330,2.0,2.0,255,0.00,,,0.00,0,Wunderground v.1.15,2013-04-23 09:10:00,
2013-04-23 02:20:00,32.3,-99.9,20.00,NNW,330,2.0,2.0,255,0.00,,,0.00,0,Wunderground v.1.15,2013-04-23 09:20:00,
2013-04-23 02:25:00,31.4,-99.9,20.00,NNW,330,3.0,3.0,255,0.00,,,0.00,0,Wunderground v.1.15,2013-04-23 09:25:00,
2013-04-23 02:35:00,32.1,-99.9,20.00,NNW,330,3.0,3.0,255,0.00,,,0.00,0,Wunderground v.1.15,2013-04-23 09:35:00,
2013-04-23 02:45:00,32.1,-99.9,20.00,NNW,330,3.0,3.0,255,0.00,,,0.00,0,Wunderground v.1.15,2013-04-23 09:45:00,
2013-04-23 02:55:00,31.5,-99.9,20.00,NNW,330,0.0,0.0,255,0.00,,,0.00,0,Wunderground v.1.15,2013-04-23 09:55:00,
2013-04-23 03:00:00,31.5,-99.9,20.00,NNW,330,0.0,0.0,255,0.00,,,0.00,0,Wunderground v.1.15,2013-04-23 10:00:00,
2013-04-23 03:10:00,32.6,-99.9,20.00,NNW,330,0.0,0.0,255,0.00,,,0.00,0,Wunderground v.1.15,2013-04-23 10:10:00,
2013-04-23 03:15:00,31.8,-99.9,20.00,NNW,330,0.0,0.0,255,0.00,,,0.00,0,Wunderground v.1.15,2013-04-23 10:15:00,
2013-04-23 03:25:00,31.6,-99.9,20.00,NNW,330,1.0,1.0,255,0.00,,,0.00,0,Wunderground v.1.15,2013-04-23 10:25:00,
2013-04-23 03:35:00,31.3,-99.9,20.00,NNW,330,2.0,2.0,255,0.00,,,0.00,0,Wunderground v.1.15,2013-04-23 10:35:00,
2013-04-23 03:45:00,30.5,-99.9,20.00,NNW,330,2.0,5.0,255,0.00,,,0.00,0,Wunderground v.1.15,2013-04-23 10:45:00,
2013-04-23 03:55:00,30.3,-99.9,20.00,NNW,330,0.0,5.0,255,0.00,,,0.00,0,Wunderground v.1.15,2013-04-23 10:55:00,
2013-04-23 04:00:00,30.7,-99.9,20.00,NNW,330,0.0,0.0,255,0.00,,,0.00,0,Wunderground v.1.15,2013-04-23 11:00:00,
2013-04-23 04:10:00,32.7,-99.9,20.00,NNW,330,2.0,2.0,255,0.00,,,0.00,0,Wunderground v.1.15,2013-04-23 11:10:00,
2013-04-23 04:20:00,31.0,-99.9,20.00,NNW,330,0.0,0.0,255,0.00,,,0.00,0,Wunderground v.1.15,2013-04-23 11:20:00,
2013-04-23 04:30:00,31.4,-99.9,20.00,NNW,330,0.0,0.0,255,0.00,,,0.00,0,Wunderground v.1.15,2013-04-23 11:30:00,
2013-04-23 04:35:00,30.7,-99.9,20.00,NNW,330,0.0,0.0,255,0.00,,,0.00,0,Wunderground v.1.15,2013-04-23 11:35:00,
2013-04-23 04:45:00,29.5,-99.9,20.00,NNW,330,0.0,0.0,255,0.00,,,0.00,0,Wunderground v.1.15,2013-04-23 11:45:00,
2013-04-23 04:55:00,30.3,-99.9,20.00,NNW,330,0.0,2.0,255,0.00,,,0.00,0,Wunderground v.1.15,2013-04-23 11:55:00,
2013-04-23 05:00:00,29.9,-99.9,20.00,NNW,330,3.0,3.0,255,0.00,,,0.00,0,Wunderground v.1.15,2013-04-23 12:00:00,
2013-04-23 05:10:00,29.4,-99.9,20.00,North,353,1.0,1.0,255,0.00,,,0.00,0,Wunderground v.1.15,2013-04-23 12:10:00,
2013-04-23 05:20:00,29.5,-99.9,20.00,North,353,0.0,0.0,255,0.00,,,0.00,0,Wunderground v.1.15,2013-04-23 12:20:00,
2013-04-23 05:30:00,31.1,-99.9,20.00,North,353,0.0,0.0,255,0.00,,,0.00,0,Wunderground v.1.15,2013-04-23 12:30:00,
2013-04-23 05:35:00,30.1,-99.9,20.00,North,353,0.0,3.0,255,0.00,,,0.00,0,Wunderground v.1.15,2013-04-23 12:35:00,
2013-04-23 05:45:00,28.9,-99.9,20.00,North,353,0.0,3.0,255,0.00,,,0.00,0,Wunderground v.1.15,2013-04-23 12:45:00,
2013-04-23 05:55:00,28.3,-99.9,20.00,North,353,2.0,3.0,255,0.00,,,0.00,0,Wunderground v.1.15,2013-04-23 12:55:00,
2013-04-23 06:00:00,28.3,-99.9,20.00,North,353,2.0,2.0,255,0.00,,,0.00,0,Wunderground v.1.15,2013-04-23 13:00:00,
2013-04-23 06:10:00,30.1,-99.9,20.00,North,353,0.0,0.0,255,0.00,,,0.00,0,Wunderground v.1.15,2013-04-23 13:10:00,
2013-04-23 06:20:00,29.3,-99.9,20.00,North,353,2.0,2.0,255,0.00,,,0.00,0,Wunderground v.1.15,2013-04-23 13:20:00,
2013-04-23 06:30:00,29.8,-99.9,20.00,North,353,2.0,2.0,255,0.00,,,0.00,0,Wunderground v.1.15,2013-04-23 13:30:00,
2013-04-23 06:40:00,29.8,-99.9,20.00,North,353,3.0,3.0,255,0.00,,,0.00,0,Wunderground v.1.15,2013-04-23 13:40:00,
2013-04-23 06:50:00,30.9,-99.9,20.00,North,353,0.0,0.0,255,0.00,,,0.00,0,Wunderground v.1.15,2013-04-23 13:50:00,
2013-04-23 07:00:00,32.4,-99.9,20.00,North,353,2.0,2.0,255,0.00,,,0.00,0,Wunderground v.1.15,2013-04-23 14:00:00,
2013-04-23 07:10:00,35.7,-99.9,20.00,North,353,3.0,3.0,255,0.00,,,0.00,0,Wunderground v.1.15,2013-04-23 14:10:00,
2013-04-23 07:20:00,36.6,-99.9,20.00,North,353,3.0,3.0,255,0.00,,,0.00,0,Wunderground v.1.15,2013-04-23 14:20:00,
2013-04-23 07:30:00,36.5,-99.9,20.00,North,353,1.0,1.0,255,0.00,,,0.00,0,Wunderground v.1.15,2013-04-23 14:30:00,
2013-04-23 07:40:00,37.1,-99.9,20.00,North,353,2.0,4.0,255,0.00,,,0.00,0,Wunderground v.1.15,2013-04-23 14:40:00,
2013-04-23 07:50:00,37.7,-99.9,20.00,North,357,3.0,4.0,255,0.00,,,0.00,0,Wunderground v.1.15,2013-04-23 14:50:00,
2013-04-23 08:00:00,38.5,-99.9,20.00,North,357,0.0,0.0,255,0.00,,,0.00,0,Wunderground v.1.15,2013-04-23 15:00:00,
2013-04-23 08:10:00,47.0,-99.9,20.00,North,357,0.0,0.0,255,0.00,,,0.00,0,Wunderground v.1.15,2013-04-23 15:10:00,
2013-04-23 08:20:00,46.1,-99.9,20.00,North,357,1.0,1.0,255,0.00,,,0.00,0,Wunderground v.1.15,2013-04-23 15:20:00,
2013-04-23 08:30:00,50.3,-99.9,20.00,North,0,0.0,0.0,255,0.00,,,0.00,0,Wunderground v.1.15,2013-04-23 15:30:00,
2013-04-23 08:40:00,51.7,-99.9,20.00,North,9,3.0,4.0,255,0.00,,,0.00,0,Wunderground v.1.15,2013-04-23 15:40:00,
2013-04-23 08:50:00,47.0,-99.9,20.00,NNE,13,3.0,4.0,255,0.00,,,0.00,0,Wunderground v.1.15,2013-04-23 15:50:00,
2013-04-23 09:00:00,47.0,-99.9,20.00,NNE,23,4.0,4.0,255,0.00,,,0.00,0,Wunderground v.1.15,2013-04-23 16:00:00,
2013-04-23 09:10:00,50.4,-99.9,20.00,NNE,29,0.0,0.0,255,0.00,,,0.00,0,Wunderground v.1.15,2013-04-23 16:10:00,
2013-04-23 09:20:00,53.6,-99.9,20.00,ENE,66,1.0,1.0,255,0.00,,,0.00,0,Wunderground v.1.15,2013-04-23 16:20:00,
2013-04-23 09:30:00,49.8,-99.9,20.00,East,99,0.0,0.0,255,0.00,,,0.00,0,Wunderground v.1.15,2013-04-23 16:30:00,
2013-04-23 09:40:00,50.7,-99.9,20.00,ESE,112,6.0,6.0,255,0.00,,,0.00,0,Wunderground v.1.15,2013-04-23 16:40:00,
2013-04-23 09:45:00,50.3,-99.9,20.00,ESE,108,4.0,6.0,255,0.00,,,0.00,0,Wunderground v.1.15,2013-04-23 16:45:00,
2013-04-23 09:55:00,50.1,-99.9,20.00,SE,125,2.0,6.0,255,0.00,,,0.00,0,Wunderground v.1.15,2013-04-23 16:55:00,
2013-04-23 10:00:00,50.3,-99.9,20.00,SE,125,3.0,3.0,255,0.00,,,0.00,0,Wunderground v.1.15,2013-04-23 17:00:00,
2013-04-23 10:10:00,54.6,-99.9,20.00,East,88,4.0,4.0,255,0.00,,,0.00,0,Wunderground v.1.15,2013-04-23 17:10:00,
2013-04-23 10:20:00,53.1,-99.9,20.00,North,355,0.0,0.0,255,0.00,,,0.00,0,Wunderground v.1.15,2013-04-23 17:20:00,
2013-04-23 10:30:00,56.7,-99.9,20.00,NW,320,1.0,1.0,255,0.00,,,0.00,0,Wunderground v.1.15,2013-04-23 17:30:00,
2013-04-23 10:40:00,55.2,-99.9,20.00,NW,320,0.0,7.0,255,0.00,,,0.00,0,Wunderground v.1.15,2013-04-23 17:40:00,
2013-04-23 10:50:00,51.8,-99.9,20.00,NW,320,0.0,7.0,255,0.00,,,0.00,0,Wunderground v.1.15,2013-04-23 17:50:00,
2013-04-23 11:00:00,53.2,-99.9,20.00,SSW,203,5.0,5.0,255,0.00,,,0.00,0,Wunderground v.1.15,2013-04-23 18:00:00,
2013-04-23 11:10:00,56.5,-99.9,20.00,South,179,0.0,0.0,255,0.00,,,0.00,0,Wunderground v.1.15,2013-04-23 18:10:00,
2013-04-23 11:15:00,59.8,-99.9,20.00,South,179,0.0,0.0,255,0.00,,,0.00,0,Wunderground v.1.15,2013-04-23 18:15:00,
2013-04-23 11:25:00,65.8,-99.9,20.00,West,272,1.0,5.0,255,0.00,,,0.00,0,Wunderground v.1.15,2013-04-23 18:25:00,
2013-04-23 11:35:00,62.0,-99.9,20.00,WSW,244,5.0,5.0,255,0.00,,,0.00,0,Wunderground v.1.15,2013-04-23 18:35:00,
2013-04-23 11:45:00,59.2,-99.9,20.00,SW,218,0.0,3.0,255,0.00,,,0.00,0,Wunderground v.1.15,2013-04-23 18:45:00,
2013-04-23 11:55:00,58.5,-99.9,20.00,WSW,241,6.0,6.0,255,0.00,,,0.00,0,Wunderground v.1.15,2013-04-23 18:55:00,
2013-04-23 12:00:00,57.8,-99.9,20.00,WSW,242,7.0,7.0,255,0.00,,,0.00,0,Wunderground v.1.15,2013-04-23 19:00:00,
2013-04-23 12:10:00,60.2,-99.9,20.00,WSW,253,2.0,2.0,255,0.00,,,0.00,0,Wunderground v.1.15,2013-04-23 19:10:00,
2013-04-23 12:20:00,57.9,-99.9,20.00,SW,221,2.0,2.0,255,0.00,,,0.00,0,Wunderground v.1.15,2013-04-23 19:20:00,
2013-04-23 12:30:00,58.3,-99.9,20.00,WSW,239,4.0,4.0,255,0.00,,,0.00,0,Wunderground v.1.15,2013-04-23 19:30:00,
2013-04-23 12:40:00,62.7,-99.9,20.00,West,272,4.0,4.0,255,0.00,,,0.00,0,Wunderground v.1.15,2013-04-23 19:40:00,
2013-04-23 12:50:00,65.6,-99.9,20.00,West,278,7.0,7.0,255,0.00,,,0.00,0,Wunderground v.1.15,2013-04-23 19:50:00,
2013-04-23 12:55:00,67.8,-99.9,20.00,WSW,243,3.0,7.0,255,0.00,,,0.00,0,Wunderground v.1.15,2013-04-23 19:55:00,
2013-04-23 13:00:00,65.0,-99.9,20.00,WSW,254,4.0,4.0,255,0.00,,,0.00,0,Wunderground v.1.15,2013-04-23 20:00:00,
2013-04-23 13:10:00,62.2,-99.9,20.00,SW,227,7.0,7.0,255,0.00,,,0.00,0,Wunderground v.1.15,2013-04-23 20:10:00,
2013-04-23 13:20:00,62.3,-99.9,20.00,SW,224,7.0,7.0,255,0.00,,,0.00,0,Wunderground v.1.15,2013-04-23 20:20:00,
2013-04-23 13:30:00,61.0,-99.9,20.00,SW,227,10.0,10.0,255,0.00,,,0.00,0,Wunderground v.1.15,2013-04-23 20:30:00,
2013-04-23 13:40:00,60.8,-99.9,20.00,SW,234,8.0,8.0,255,0.00,,,0.00,0,Wunderground v.1.15,2013-04-23 20:40:00,
2013-04-23 13:50:00,59.0,-99.9,20.00,SW,226,14.0,14.0,255,0.00,,,0.00,0,Wunderground v.1.15,2013-04-23 20:50:00,
2013-04-23 14:00:00,58.2,-99.9,20.00,WSW,248,6.0,6.0,255,0.00,,,0.00,0,Wunderground v.1.15,2013-04-23 21:00:00,
2013-04-23 14:10:00,58.0,-99.9,20.00,WSW,243,13.0,13.0,255,0.00,,,0.00,0,Wunderground v.1.15,2013-04-23 21:10:00,
2013-04-23 14:20:00,58.1,-99.9,20.00,WSW,239,8.0,8.0,255,0.00,,,0.00,0,Wunderground v.1.15,2013-04-23 21:20:00,
2013-04-23 14:30:00,57.9,-99.9,20.00,SW,219,8.0,8.0,255,0.00,,,0.00,0,Wunderground v.1.15,2013-04-23 21:30:00,
2013-04-23 14:40:00,58.6,-99.9,20.00,WSW,250,9.0,9.0,255,0.00,,,0.00,0,Wunderground v.1.15,2013-04-23 21:40:00,
2013-04-23 14:50:00,59.0,-99.9,20.00,SW,221,6.0,6.0,255,0.00,,,0.00,0,Wunderground v.1.15,2013-04-23 21:50:00,
2013-04-23 15:00:00,59.7,-99.9,20.00,WSW,240,8.0,8.0,255,0.00,,,0.00,0,Wunderground v.1.15,2013-04-23 22:00:00,
2013-04-23 15:10:00,59.0,-99.9,20.00,SW,234,10.0,10.0,255,0.00,,,0.00,0,Wunderground v.1.15,2013-04-23 22:10:00,
2013-04-23 15:15:00,58.2,-99.9,20.00,WSW,239,5.0,10.0,255,0.00,,,0.00,0,Wunderground v.1.15,2013-04-23 22:15:00,
2013-04-23 15:25:00,57.9,-99.9,20.00,WSW,256,11.0,11.0,255,0.00,,,0.00,0,Wunderground v.1.15,2013-04-23 22:25:00,
2013-04-23 15:35:00,59.3,-99.9,20.00,WSW,246,10.0,10.0,255,0.00,,,0.00,0,Wunderground v.1.15,2013-04-23 22:35:00,
2013-04-23 15:45:00,57.9,-99.9,20.00,SW,235,10.0,10.0,255,0.00,,,0.00,0,Wunderground v.1.15,2013-04-23 22:45:00,
2013-04-23 15:55:00,58.4,-99.9,20.00,WSW,240,11.0,11.0,255,0.00,,,0.00,0,Wunderground v.1.15,2013-04-23 22:55:00,
2013-04-23 16:00:00,57.8,-99.9,20.00,WSW,242,10.0,10.0,255,0.00,,,0.00,0,Wunderground v.1.15,2013-04-23 23:00:00,
2013-04-23 16:10:00,56.9,-99.9,20.00,WSW,237,8.0,8.0,255,0.00,,,0.00,0,Wunderground v.1.15,2013-04-23 23:10:00,
2013-04-23 16:20:00,56.9,-99.9,20.00,SW,222,10.0,10.0,255,0.00,,,0.00,0,Wunderground v.1.15,2013-04-23 23:20:00,
2013-04-23 16:30:00,57.7,-99.9,20.00,WSW,244,12.0,12.0,255,0.00,,,0.00,0,Wunderground v.1.15,2013-04-23 23:30:00,
2013-04-23 16:40:00,56.1,-99.9,20.00,WSW,245,10.0,10.0,255,0.00,,,0.00,0,Wunderground v.1.15,2013-04-23 23:40:00,
2013-04-23 16:50:00,56.8,-99.9,20.00,WSW,247,13.0,13.0,255,0.00,,,0.00,0,Wunderground v.1.15,2013-04-23 23:50:00,
2013-04-23 16:55:00,56.0,-99.9,20.00,WSW,237,8.0,13.0,255,0.00,,,0.00,0,Wunderground v.1.15,2013-04-23 23:55:00,
2013-04-23 17:00:00,56.5,-99.9,20.00,WSW,253,9.0,9.0,255,0.00,,,0.00,0,Wunderground v.1.15,2013-04-24 00:00:00,
2013-04-23 17:10:00,58.4,-99.9,20.00,WSW,257,4.0,4.0,255,0.00,,,0.00,0,Wunderground v.1.15,2013-04-24 00:10:00,
2013-04-23 17:20:00,58.9,-99.9,20.00,WNW,298,7.0,7.0,255,0.00,,,0.00,0,Wunderground v.1.15,2013-04-24 00:20:00,
2013-04-23 17:30:00,59.6,-99.9,20.00,NW,309,7.0,7.0,255,0.00,,,0.00,0,Wunderground v.1.15,2013-04-24 00:30:00,
2013-04-23 17:40:00,58.5,-99.9,20.00,NW,322,10.0,10.0,255,0.00,,,0.00,0,Wunderground v.1.15,2013-04-24 00:40:00,
2013-04-23 17:50:00,59.4,-99.9,20.00,NW,317,10.0,10.0,255,0.00,,,0.00,0,Wunderground v.1.15,2013-04-24 00:50:00,
2013-04-23 18:00:00,58.3,-99.9,20.00,NW,317,8.0,8.0,255,0.00,,,0.00,0,Wunderground v.1.15,2013-04-24 01:00:00,
2013-04-23 18:10:00,58.2,-99.9,20.00,WNW,298,7.0,7.0,255,0.00,,,0.00,0,Wunderground v.1.15,2013-04-24 01:10:00,
2013-04-23 18:20:00,57.9,-99.9,20.00,WNW,299,11.0,11.0,255,0.00,,,0.00,0,Wunderground v.1.15,2013-04-24 01:20:00,
2013-04-23 18:30:00,57.3,-99.9,20.00,WNW,295,6.0,6.0,255,0.00,,,0.00,0,Wunderground v.1.15,2013-04-24 01:30:00,
2013-04-23 18:40:00,56.9,-99.9,20.00,NW,307,2.0,2.0,255,0.00,,,0.00,0,Wunderground v.1.15,2013-04-24 01:40:00,
2013-04-23 18:50:00,56.5,-99.9,20.00,WNW,302,4.0,4.0,255,0.00,,,0.00,0,Wunderground v.1.15,2013-04-24 01:50:00,
2013-04-23 19:00:00,55.7,-99.9,20.00,WNW,293,9.0,9.0,255,0.00,,,0.00,0,Wunderground v.1.15,2013-04-24 02:00:00,
2013-04-23 19:10:00,54.2,-99.9,20.00,WSW,255,3.0,3.0,255,0.00,,,0.00,0,Wunderground v.1.15,2013-04-24 02:10:00,
2013-04-23 19:15:00,54.7,-99.9,20.00,WNW,299,3.0,3.0,255,0.00,,,0.00,0,Wunderground v.1.15,2013-04-24 02:15:00,
2013-04-23 19:25:00,52.7,-99.9,20.00,WNW,299,6.0,6.0,255,0.00,,,0.00,0,Wunderground v.1.15,2013-04-24 02:25:00,
2013-04-23 19:35:00,53.7,-99.9,20.00,WNW,299,6.0,6.0,255,0.00,,,0.00,0,Wunderground v.1.15,2013-04-24 02:35:00,
2013-04-23 19:40:00,52.8,-99.9,20.00,WNW,302,7.0,7.0,255,0.00,,,0.00,0,Wunderground v.1.15,2013-04-24 02:40:00,
2013-04-23 19:50:00,51.5,-99.9,20.00,West,264,4.0,4.0,255,0.00,,,0.00,0,Wunderground v.1.15,2013-04-24 02:50:00,
2013-04-23 20:00:00,50.5,-99.9,20.00,WNW,282,4.0,4.0,255,0.00,,,0.00,0,Wunderground v.1.15,2013-04-24 03:00:00,
2013-04-23 20:10:00,49.7,-99.9,20.00,WNW,285,5.0,5.0,255,0.00,,,0.00,0,Wunderground v.1.15,2013-04-24 03:10:00,
2013-04-23 20:15:00,49.2,-99.9,20.00,WNW,293,7.0,7.0,255,0.00,,,0.00,0,Wunderground v.1.15,2013-04-24 03:15:00,
2013-04-23 20:25:00,48.5,-99.9,20.00,WNW,286,2.0,4.0,255,0.00,,,0.00,0,Wunderground v.1.15,2013-04-24 03:25:00,
2013-04-23 20:30:00,48.1,-99.9,20.00,West,277,2.0,2.0,255,0.00,,,0.00,0,Wunderground v.1.15,2013-04-24 03:30:00,
2013-04-23 20:40:00,47.9,-99.9,20.00,West,260,2.0,2.0,255,0.00,,,0.00,0,Wunderground v.1.15,2013-04-24 03:40:00,
2013-04-23 20:45:00,47.6,-99.9,20.00,West,260,4.0,4.0,255,0.00,,,0.00,0,Wunderground v.1.15,2013-04-24 03:45:00,
2013-04-23 20:50:00,47.4,-99.9,20.00,West,260,3.0,3.0,255,0.00,,,0.00,0,Wunderground v.1.15,2013-04-24 03:50:00,
2013-04-23 21:00:00,47.1,-99.9,20.00,West,260,3.0,3.0,255,0.00,,,0.00,0,Wunderground v.1.15,2013-04-24 04:00:00,
2013-04-23 21:05:00,46.8,-99.9,20.00,WSW,251,4.0,4.0,255,0.00,,,0.00,0,Wunderground v.1.15,2013-04-24 04:05:00,
2013-04-23 21:10:00,46.7,-99.9,20.00,WSW,251,5.0,5.0,255,0.00,,,0.00,0,Wunderground v.1.15,2013-04-24 04:10:00,
2013-04-23 21:15:00,46.0,-99.9,20.00,WSW,243,4.0,5.0,255,0.00,,,0.00,0,Wunderground v.1.15,2013-04-24 04:15:00,
2013-04-23 21:20:00,45.8,-99.9,20.00,WSW,239,3.0,3.0,255,0.00,,,0.00,0,Wunderground v.1.15,2013-04-24 04:20:00,
2013-04-23 21:30:00,45.0,-99.9,20.00,SW,233,3.0,3.0,255,0.00,,,0.00,0,Wunderground v.1.15,2013-04-24 04:30:00,
2013-04-23 21:35:00,45.0,-99.9,20.00,SW,233,4.0,4.0,255,0.00,,,0.00,0,Wunderground v.1.15,2013-04-24 04:35:00,
2013-04-23 21:45:00,44.6,-99.9,20.00,WSW,251,0.0,4.0,255,0.00,,,0.00,0,Wunderground v.1.15,2013-04-24 04:45:00,
2013-04-23 21:55:00,44.2,-99.9,20.00,WSW,248,3.0,3.0,255,0.00,,,0.00,0,Wunderground v.1.15,2013-04-24 04:55:00,
2013-04-23 22:00:00,44.5,-99.9,20.00,WSW,247,4.0,4.0,255,0.00,,,0.00,0,Wunderground v.1.15,2013-04-24 05:00:00,
2013-04-23 22:10:00,44.0,-99.9,20.00,WSW,237,3.0,3.0,255,0.00,,,0.00,0,Wunderground v.1.15,2013-04-24 05:10:00,
2013-04-23 22:20:00,43.8,-99.9,20.00,WSW,237,0.0,0.0,255,0.00,,,0.00,0,Wunderground v.1.15,2013-04-24 05:20:00,
2013-04-23 22:30:00,41.7,-99.9,20.00,WSW,237,0.0,0.0,255,0.00,,,0.00,0,Wunderground v.1.15,2013-04-24 05:30:00,
2013-04-23 22:40:00,41.2,-99.9,20.00,WSW,237,0.0,0.0,255,0.00,,,0.00,0,Wunderground v.1.15,2013-04-24 05:40:00,
2013-04-23 22:50:00,39.8,-99.9,20.00,WSW,237,0.0,0.0,255,0.00,,,0.00,0,Wunderground v.1.15,2013-04-24 05:50:00,
2013-04-23 22:55:00,40.8,-99.9,20.00,WSW,237,0.0,0.0,255,0.00,,,0.00,0,Wunderground v.1.15,2013-04-24 05:55:00,
2013-04-23 23:00:00,40.4,-99.9,20.00,WSW,237,0.0,0.0,255,0.00,,,0.00,0,Wunderground v.1.15,2013-04-24 06:00:00,
2013-04-23 23:10:00,40.8,-99.9,20.00,WSW,237,0.0,0.0,255,0.00,,,0.00,0,Wunderground v.1.15,2013-04-24 06:10:00,
2013-04-23 23:20:00,41.9,-99.9,20.00,WSW,237,0.0,0.0,255,0.00,,,0.00,0,Wunderground v.1.15,2013-04-24 06:20:00,
2013-04-23 23:30:00,39.3,-99.9,20.00,WSW,237,0.0,0.0,255,0.00,,,0.00,0,Wunderground v.1.15,2013-04-24 06:30:00,
2013-04-23 23:40:00,36.9,-99.9,20.00,WSW,237,0.0,0.0,255,0.00,,,0.00,0,Wunderground v.1.15,2013-04-24 06:40:00,
2013-04-23 23:50:00,38.8,-99.9,20.00,WSW,237,0.0,0.0,255,0.00,,,0.00,0,Wunderground v.1.15,2013-04-24 06:50:00,